Back to catalog

ARIANE 44L DEB

AliveHEO
NORAD 28573·DEBRIS·🇫🇷 France

Launched Jan 15, 1991 from Guiana Space Centre

Loading…

Next Passes (next 24 hours)

TLE

FreshSource: Space-Track

Epoch: Sep 14, 2026, 08:31 UTC

1 28573U 91003N   26257.35496985 -.00000087  00000-0 -73789-3 0  9993
2 28573   6.7897 137.6428 6810800 278.6412 314.0855  2.64778710223261

Track ARIANE 44L DEB in real time with AllMySat

Download on the App Store